USA 486

operational
NORAD ID: 62757 Int'l Des: 2025-014 Owner: NROC Country: US
LEOCIRCULAR

关于 USA 486

正在加载描述...

实时位置

正在加载3D地球...

即将过境

高度历史

Altitude vs Time

uPlot chart will show altitude changes over time

两行轨道根数

1 62757U 25014Y 26061.33455861 .00255391 00000-0 15217-2 0 9992
2 62757 42.9995 40.2175 0001920 254.5527 105.5131 15.76407455 63917
Epoch: Mar 2, 2026 • Age: 31 hours

当前状态

高度 342.9 km
速度 7.70 km/s
星下点 -18.87°S, 111.29°E
发射日期 Jan 21, 2025
运行时间 1.1 years
类型 military

技术详情

分类 Payload
质量 800.00 kg
干质量 750.00 kg
总质量 800.00 kg
长度 0.30 m
直径 4.10 m
跨度 29.00 m
形状 Box + pan
制造商 SPXS
平台类型 Starshield
阶段状态 In Orbit
所有者/国家 NROC/US

大型星座

Loading constellations...